Starlink 30303

operational
NORAD ID: 57677 Int'l Des: 2023-124 Owner: SPXS Country: US Constellation: starlink
LEOCIRCULAR

Starlink 30303について

説明を読み込み中...

リアルタイム位置

3D地球を読み込み中...

次回通過

高度履歴

Altitude vs Time

uPlot chart will show altitude changes over time

軌道要素

1 57677U 23124Q 26035.18938052 .00000474 00000-0 28128-4 0 9996
2 57677 53.1627 2.0832 0001237 83.3203 276.7939 15.30190023138442
Epoch: Feb 4, 2026 • Age: 18 hours

現在のステータス

高度 480.0 km
速度 7.63 km/s
衛星直下点 48.92°N, 49.07°W
打ち上げ日 Aug 22, 2023
運用期間 2.4 years
タイプ internet

技術仕様

分類 Payload
質量 730.00 kg
乾燥質量 700.00 kg
総質量 730.00 kg
長さ 0.30 m
直径 4.10 m
スパン 29.00 m
形状 Box + pan
製造者 SPXS
バスタイプ Starlink V2M
フェーズステータス In Orbit
所有者/国 SPXS/US

大規模コンステレーション

Loading constellations...